TimeCDT,TemperatureF,Dew PointF,Humidity,Sea Level PressureIn,VisibilityMPH,Wind Direction,Wind SpeedMPH,Gust SpeedMPH,PrecipitationIn,Events,Conditions,WindDirDegrees,DateUTC
12:50 AM,42.8,41.0,93,29.72,5.0,Calm,Calm,-,N/A,,Overcast,0,2012-10-20 05:50:00
12:53 AM,42.1,41.0,96,29.75,5.0,Calm,Calm,-,N/A,,Overcast,0,2012-10-20 05:53:00
1:21 AM,42.8,41.0,93,29.72,10.0,Calm,Calm,-,N/A,,Overcast,0,2012-10-20 06:21:00
1:53 AM,42.1,39.9,92,29.75,10.0,SE,4.6,-,N/A,,Overcast,140,2012-10-20 06:53:00
2:53 AM,42.1,41.0,96,29.75,10.0,South,4.6,-,N/A,,Overcast,190,2012-10-20 07:53:00
3:45 AM,42.8,41.0,93,29.73,10.0,SW,5.8,-,N/A,,Overcast,220,2012-10-20 08:45:00
3:53 AM,42.1,41.0,96,29.76,10.0,SSW,4.6,-,N/A,,Overcast,200,2012-10-20 08:53:00
4:53 AM,42.1,41.0,96,29.75,10.0,SW,3.5,-,N/A,,Overcast,220,2012-10-20 09:53:00
5:53 AM,42.1,41.0,96,29.75,10.0,South,3.5,-,N/A,,Overcast,170,2012-10-20 10:53:00
6:53 AM,42.1,41.0,96,29.75,10.0,South,4.6,-,N/A,,Overcast,180,2012-10-20 11:53:00
7:23 AM,42.8,41.0,93,29.72,10.0,South,4.6,-,N/A,,Overcast,170,2012-10-20 12:23:00
7:53 AM,43.0,41.0,93,29.76,10.0,South,8.1,-,N/A,,Overcast,170,2012-10-20 12:53:00
8:28 AM,42.8,41.0,93,29.73,9.0,South,8.1,-,N/A,,Overcast,180,2012-10-20 13:28:00
8:53 AM,43.0,41.0,93,29.78,10.0,South,9.2,-,N/A,,Overcast,180,2012-10-20 13:53:00
9:53 AM,44.1,41.0,89,29.76,10.0,South,8.1,-,N/A,,Overcast,170,2012-10-20 14:53:00
10:53 AM,45.0,41.0,86,29.76,10.0,South,10.4,-,N/A,,Overcast,190,2012-10-20 15:53:00
11:53 AM,46.0,42.1,86,29.77,10.0,South,9.2,-,N/A,,Overcast,180,2012-10-20 16:53:00
12:41 PM,46.4,42.8,87,29.72,10.0,South,10.4,-,N/A,,Overcast,180,2012-10-20 17:41:00
12:53 PM,46.9,42.1,83,29.74,10.0,South,11.5,-,N/A,,Overcast,170,2012-10-20 17:53:00
1:06 PM,48.2,42.8,82,29.71,10.0,South,10.4,-,N/A,,Overcast,180,2012-10-20 18:06:00
1:53 PM,48.0,42.1,80,29.74,10.0,SSE,10.4,-,N/A,,Overcast,160,2012-10-20 18:53:00
2:53 PM,48.9,42.1,77,29.73,10.0,South,9.2,-,N/A,,Overcast,180,2012-10-20 19:53:00
3:53 PM,48.9,42.1,77,29.73,10.0,SSW,10.4,-,N/A,,Overcast,200,2012-10-20 20:53:00
4:53 PM,48.9,42.1,77,29.73,10.0,South,10.4,-,N/A,,Overcast,190,2012-10-20 21:53:00
5:53 PM,48.0,42.1,80,29.74,10.0,South,10.4,-,N/A,,Overcast,170,2012-10-20 22:53:00
6:53 PM,48.0,42.1,80,29.73,10.0,SSE,5.8,-,N/A,,Overcast,160,2012-10-20 23:53:00
7:53 PM,46.9,42.1,83,29.73,10.0,SSE,10.4,-,N/A,,Overcast,150,2012-10-21 00:53:00
8:53 PM,45.0,41.0,86,29.74,10.0,South,10.4,-,N/A,,Scattered Clouds,170,2012-10-21 01:53:00
9:53 PM,45.0,41.0,86,29.75,10.0,SSE,9.2,-,N/A,,Partly Cloudy,160,2012-10-21 02:53:00
10:53 PM,45.0,41.0,86,29.76,10.0,SSE,8.1,-,N/A,,Mostly Cloudy,150,2012-10-21 03:53:00
11:53 PM,44.1,41.0,89,29.77,10.0,SSE,8.1,-,N/A,,Mostly Cloudy,150,2012-10-21 04:53:00